This is the latest recevied weather packets stored in our database for station/object W7BTL. If no packets are shown the sender has not sent any weather packets the latest 10 day(s).
| Time | Temp. | Humidity | Pressure | Rain* | Wind** | Luminosity | Snow |
|---|---|---|---|---|---|---|---|
| 1788471329 | 29.44° C | 46% | 1012.1 hPa | 0 mm | - | 842 W/m² | - |
| 1788471024 | 29.44° C | 46% | 1012.2 hPa | 0 mm | - | 855 W/m² | - |
| 1788470720 | 29.44° C | 44% | 1012.3 hPa | 0 mm | - | 865 W/m² | - |
| 1788470415 | 30° C | 43% | 1012.2 hPa | 0 mm | - | 881 W/m² | - |
| 1788470110 | 29.44° C | 45% | 1011.9 hPa | 0 mm | - | 891 W/m² | - |
| 1788469807 | 29.44° C | 46% | 1012.1 hPa | 0 mm | - | 903 W/m² | - |
| 1788469507 | 29.44° C | 47% | 1012.2 hPa | 0 mm | - | 912 W/m² | - |
| 1788469203 | 29.44° C | 46% | 1012.4 hPa | 0 mm | - | 923 W/m² | - |
| 1788468902 | 28.89° C | 49% | 1012.4 hPa | 0 mm | - | 932 W/m² | - |
| 1788468596 | 29.44° C | 47% | 1012.7 hPa | 0 mm | - | 938 W/m² | - |
| 1788468293 | 28.89° C | 48% | 1012.3 hPa | 0 mm | - | 946 W/m² | - |
| 1788467988 | 29.44° C | 48% | 1012.5 hPa | 0 mm | - | 953 W/m² | - |
| 1788467683 | 28.89° C | 49% | 1012.4 hPa | 0 mm | - | 922 W/m² | - |
| 1788467382 | 30° C | 47% | 1012.6 hPa | 0 mm | - | 964 W/m² | - |
| 1788467079 | 29.44° C | 49% | 1012.6 hPa | 0 mm | - | 971 W/m² | - |
| 1788466779 | 29.44° C | 47% | 1012.5 hPa | 0 mm | - | 978 W/m² | - |
| 1788466474 | 29.44° C | 48% | 1012.6 hPa | 0 mm | - | 981 W/m² | - |
| 1788466173 | 30° C | 46% | 1012.7 hPa | 0 mm | - | 986 W/m² | - |
| 1788465868 | 29.44° C | 48% | 1012.8 hPa | 0 mm | - | 980 W/m² | - |
| 1788465563 | 29.44° C | 47% | 1012.6 hPa | 0 mm | - | 984 W/m² | - |
| 1788465260 | 28.89° C | 49% | 1012.7 hPa | 0 mm | - | 987 W/m² | - |
| 1788464954 | 28.89° C | 47% | 1012.8 hPa | 0 mm | - | 984 W/m² | - |
| 1788464650 | 29.44° C | 44% | 1012.9 hPa | 0 mm | - | 991 W/m² | - |
| 1788464345 | 28.33° C | 50% | 1013 hPa | 0 mm | - | 890 W/m² | - |
| 1788464042 | 27.78° C | 48% | 1013.1 hPa | 0 mm | - | 987 W/m² | - |
* Rain latest hour (hover to see other rain measurements)
** Current wind speed in m/s (hover to see current wind gust speed)